Date,TemperatureHighF,TemperatureAvgF,TemperatureLowF,DewpointHighF,DewpointAvgF,DewpointLowF,HumidityHigh,HumidityAvg,HumidityLow,PressureMaxIn,PressureMinIn,WindSpeedMaxMPH,WindSpeedAvgMPH,GustSpeedMaxMPH,PrecipitationSumIn
2013-1-1,35.0,25.2,14.0,26.3,16.1,10.9,100,71,44,0.00,40.00,13,2,16,0.00
2013-1-2,39.0,31.1,25.0,13.2,10.2,7.3,55,42,31,0.00,40.00,16,5,22,0.00
2013-1-3,41.0,31.7,19.0,14.7,9.8,6.2,78,42,24,0.00,40.00,16,4,23,0.00
2013-1-4,46.0,25.6,14.0,18.2,11.6,-1.5,93,63,21,0.00,40.00,4,0,0,0.00
2013-1-5,54.0,31.7,18.0,26.9,14.5,1.7,86,55,19,0.00,40.00,6,0,0,0.00
2013-1-6,35.0,30.9,28.0,33.2,26.6,13.7,100,87,41,0.00,40.00,12,1,19,0.01
2013-1-7,39.0,31.0,23.0,28.0,21.5,10.8,100,73,31,0.00,40.00,20,7,24,0.06
2013-1-8,52.0,39.7,27.0,30.7,24.8,12.2,100,58,34,0.00,40.00,13,3,17,0.04
2013-1-9,55.0,38.9,26.0,34.3,28.9,21.1,100,71,42,0.00,40.00,12,1,20,0.00
2013-1-10,41.0,27.8,19.0,34.0,26.6,16.3,100,96,57,0.00,40.00,12,2,29,0.10
2013-1-11,28.0,21.1,15.0,19.0,15.6,10.7,100,80,53,0.00,40.00,16,2,20,0.00
2013-1-12,30.0,17.5,8.0,19.7,12.3,8.0,100,82,47,0.00,40.00,10,0,13,0.00
2013-1-13,36.0,18.1,7.0,24.9,11.4,4.0,100,77,47,0.00,40.00,7,0,12,0.00
2013-1-14,23.0,17.7,11.0,6.7,1.1,-5.7,72,49,30,0.00,40.00,20,7,22,0.01
2013-1-15,39.0,35.5,34.0,22.8,20.9,19.6,59,55,48,0.00,40.00,11,3,19,0.00
2013-1-16,46.0,39.5,33.0,22.4,19.1,13.9,57,44,34,0.00,40.00,18,7,27,0.04
2013-1-17,47.0,38.4,23.0,19.6,13.7,10.3,82,38,23,0.00,40.00,17,5,22,0.00
2013-1-18,48.0,30.6,19.0,21.7,17.1,12.9,96,64,26,0.00,40.00,9,1,13,0.00
2013-1-19,49.0,30.4,19.0,21.2,16.2,10.5,94,63,22,0.00,40.00,10,1,14,0.00
2013-1-20,25.0,20.5,19.0,18.2,16.4,14.1,90,84,66,0.00,40.00,0,0,0,0.00
2013-1-21,46.0,29.6,24.0,17.8,15.1,5.5,73,57,19,0.00,40.00,1,0,0,0.00
2013-1-22,58.0,35.9,20.0,28.4,17.3,7.6,83,53,14,0.00,40.00,4,0,0,0.00
2013-1-23,61.0,48.4,34.0,36.2,30.2,22.0,80,50,32,0.00,40.00,12,1,20,0.00
2013-1-24,53.0,43.2,38.0,53.0,42.2,31.4,100,96,73,0.00,40.00,11,1,17,0.43
2013-1-25,50.0,43.6,39.0,50.0,43.6,39.0,100,100,100,0.00,40.00,2,0,0,0.20
2013-1-26,51.0,43.6,41.0,51.0,43.6,41.0,100,100,100,0.00,40.00,13,0,16,0.10
2013-1-27,42.0,35.9,24.0,42.0,35.9,24.0,100,100,100,0.00,40.00,15,2,25,0.03
2013-1-28,32.0,25.5,18.0,25.0,22.4,13.2,100,88,65,0.00,40.00,14,3,19,0.00
2013-1-29,17.0,17.0,17.0,12.5,12.5,12.5,82,82,82,63.06,40.00,0,0,0,0.00
2013-2-6,49.0,33.8,17.0,28.5,24.2,12.5,88,72,34,63.06,40.00,2,0,0,0.10
2013-2-7,53.0,37.0,24.0,39.3,27.7,18.7,100,73,32,63.06,40.00,17,2,22,0.00
2013-2-8,31.0,26.7,21.0,31.0,26.7,21.0,100,100,100,63.06,40.00,21,2,26,0.00
2013-2-9,37.0,23.7,14.0,33.7,22.4,14.0,100,95,77,63.06,40.00,10,0,13,0.08
2013-2-10,38.0,24.7,14.0,36.7,23.4,14.0,100,95,70,63.06,40.00,10,0,0,0.06
2013-2-11,35.0,28.1,22.0,26.0,14.5,1.1,100,62,30,63.06,40.00,29,4,29,0.00
2013-2-12,42.0,32.6,17.0,28.7,15.2,3.3,97,50,33,63.06,40.00,12,2,16,0.04
2013-2-13,49.0,37.3,26.0,33.1,19.8,9.6,93,52,32,63.06,40.00,14,3,18,0.21
2013-2-14,52.0,39.9,25.0,30.4,24.0,18.9,98,57,33,63.06,40.00,13,3,19,0.02
2013-2-15,50.0,42.3,38.0,27.5,22.0,16.5,63,45,27,63.06,40.00,13,4,22,0.00
2013-2-18,37.0,36.0,36.0,32.2,27.2,23.5,86,70,60,63.06,40.00,8,1,0,0.00
2013-2-19,34.0,30.4,27.0,33.7,30.0,21.6,100,98,60,63.06,40.00,13,2,22,0.00
2013-2-20,37.0,25.2,19.0,34.1,24.4,19.0,100,97,76,63.06,40.00,17,2,20,0.13
2013-2-21,36.0,25.6,18.0,30.0,22.6,17.4,100,89,58,63.06,40.00,10,1,16,0.04
2013-2-22,50.0,29.0,15.0,39.4,22.4,10.4,100,81,31,63.06,40.00,6,0,0,0.19
2013-2-23,53.0,36.9,22.0,45.7,29.8,19.0,100,78,29,63.06,40.00,20,2,30,0.17
2013-2-24,39.0,30.9,23.0,13.5,5.3,-0.5,64,34,19,63.06,40.00,22,8,31,0.00
2013-2-25,57.0,34.1,18.0,39.6,18.3,2.6,87,58,19,63.06,40.00,9,0,13,0.00
2013-2-26,47.0,37.2,22.0,23.4,15.2,6.2,93,43,23,63.06,40.00,16,4,19,0.00
2013-2-27,47.0,35.9,22.0,18.6,9.5,0.7,85,37,18,63.06,40.00,15,2,22,0.00
2013-2-28,55.0,41.8,23.0,19.6,10.8,1.7,74,31,18,63.06,40.00,10,2,17,0.00
2013-3-1,61.0,46.5,31.0,29.8,18.2,7.9,85,36,21,63.06,40.00,17,2,18,0.00
2013-3-2,66.0,46.2,27.0,30.6,24.9,19.6,91,51,20,63.06,40.00,13,1,19,0.00
2013-3-3,48.0,43.1,40.0,31.1,24.5,20.6,66,48,38,63.06,40.00,3,0,0,0.00
2013-3-4,60.0,41.9,30.0,40.5,33.4,29.2,100,75,37,63.06,40.00,12,1,16,0.00
2013-3-5,56.0,43.3,32.0,44.4,37.2,32.0,100,81,49,63.06,40.00,17,2,29,0.00
2013-3-6,50.0,38.9,31.0,45.6,36.8,31.0,100,93,66,63.06,40.00,13,1,23,0.01
2013-3-7,36.0,33.7,31.0,36.0,33.7,31.0,100,100,100,63.06,40.00,10,1,19,0.46
2013-3-8,31.0,30.7,30.0,31.0,30.7,30.0,100,100,100,63.06,40.00,7,2,14,0.00
2013-3-9,45.0,34.8,28.0,35.3,30.0,26.6,100,84,52,63.06,40.00,12,2,18,0.31
2013-3-11,64.0,42.2,24.0,33.8,21.8,5.8,93,54,17,63.06,40.00,7,0,0,0.00
2013-3-12,68.0,45.2,28.0,36.0,26.3,18.2,93,58,18,63.06,40.00,9,1,0,0.00
2013-3-13,63.0,37.8,30.0,36.4,30.0,24.8,97,79,24,63.06,40.00,5,0,0,0.00
2013-3-14,78.0,62.3,39.0,42.7,36.0,29.4,80,44,20,63.06,40.00,10,1,0,0.00
2013-3-15,72.0,54.4,39.0,44.3,33.1,13.5,87,50,22,63.06,40.00,14,1,22,0.00
2013-3-16,68.0,51.6,37.0,36.0,26.0,18.5,68,40,16,63.06,40.00,16,2,17,0.00
2013-3-17,67.0,50.6,35.0,36.8,26.2,12.0,78,43,12,63.06,40.00,13,2,18,0.00
2013-3-18,65.0,46.4,29.0,32.8,26.4,16.6,96,52,21,63.06,40.00,9,1,0,0.00
2013-3-19,68.0,51.4,39.0,37.0,29.5,23.2,80,45,26,63.06,40.00,20,2,20,0.00
2013-3-20,64.0,50.8,38.0,44.1,37.9,32.6,90,63,43,63.06,40.00,9,1,19,0.00
2013-3-21,67.0,48.1,37.0,43.7,34.8,26.4,99,63,27,63.06,40.00,12,2,16,0.00
2013-3-22,61.0,44.9,35.0,38.0,23.3,3.5,100,49,12,63.06,40.00,12,2,15,0.00
2013-3-24,61.0,43.8,28.0,32.0,23.2,11.2,90,52,19,63.06,40.00,8,1,12,0.00
2013-3-25,66.0,47.2,30.0,36.8,30.2,25.6,95,58,24,63.06,40.00,17,1,20,0.00
2013-3-26,65.0,50.5,41.0,38.9,31.4,20.4,80,51,25,63.06,40.00,12,1,19,0.00
2013-3-27,61.0,46.7,33.0,42.3,36.4,29.3,94,70,44,63.06,40.00,17,1,19,0.00
2013-3-28,66.0,48.6,33.0,44.1,38.4,32.8,99,72,35,63.06,40.00,10,1,17,0.00
2013-3-29,68.0,49.7,33.0,43.7,36.5,31.6,100,67,31,63.06,40.00,10,1,19,0.00
2013-3-30,66.0,52.6,39.0,42.6,35.0,23.9,73,52,32,63.06,40.00,12,1,19,0.00
2013-3-31,56.0,45.7,41.0,44.7,37.4,20.9,95,74,41,63.06,40.00,13,1,20,0.00
2013-4-1,59.0,43.2,35.0,44.6,37.9,34.3,100,83,49,63.06,40.00,8,1,18,0.00
2013-4-2,62.0,44.6,29.0,39.9,32.9,26.8,100,69,28,63.06,40.00,9,1,16,0.00
2013-4-3,73.0,50.2,31.0,39.6,33.9,30.5,99,61,25,63.06,40.00,9,0,15,0.00
2013-4-4,67.0,53.2,41.0,44.9,36.5,27.6,92,56,26,63.06,40.00,10,1,22,0.00
2013-4-5,65.0,47.7,36.0,46.4,39.7,33.5,100,78,40,63.06,40.00,10,1,13,0.00
2013-4-6,66.0,48.4,33.0,45.0,36.6,27.5,100,69,35,63.06,40.00,13,2,17,0.00
2013-4-7,69.0,50.3,38.0,45.3,35.7,29.1,98,60,24,63.06,40.00,12,2,20,0.00
2013-4-8,46.0,40.6,35.0,43.0,35.6,26.2,100,84,52,63.06,40.00,17,2,24,0.05
2013-4-9,53.0,42.3,32.0,31.3,17.0,5.3,84,41,16,63.06,40.00,21,6,25,0.00
2013-4-10,62.0,48.5,37.0,29.7,15.6,6.7,64,29,14,63.06,40.00,18,6,29,0.00
2013-4-11,67.0,43.1,34.0,40.5,32.4,25.2,88,69,27,63.06,40.00,7,0,15,0.00
2013-4-12,73.0,51.3,35.0,40.9,35.3,29.9,100,62,24,63.06,40.00,9,1,17,0.00
2013-4-13,66.0,52.7,39.0,44.5,37.9,29.9,90,61,30,63.06,40.00,14,1,23,0.00
2013-4-14,65.0,48.3,37.0,39.8,34.3,30.2,89,62,32,63.06,40.00,9,2,16,0.00
2013-4-15,48.0,39.2,34.0,41.5,37.8,33.5,100,95,75,63.06,40.00,15,2,27,0.00
2013-4-16,51.0,37.1,27.0,39.2,28.9,16.8,100,75,39,63.06,40.00,15,2,25,0.03
2013-4-17,49.0,38.7,29.0,25.6,12.0,2.9,76,37,17,63.06,40.00,23,7,29,0.00
2013-4-18,54.0,43.7,35.0,9.8,6.2,1.6,32,22,13,63.06,40.00,18,5,23,0.00
2013-4-19,66.0,49.9,29.0,28.9,13.9,1.6,62,27,12,63.06,40.00,10,1,14,0.00
2013-4-20,76.0,54.8,34.0,38.7,27.8,22.6,76,40,16,63.06,40.00,15,3,21,0.00
2013-4-21,75.0,56.1,37.0,36.0,30.8,25.8,78,44,18,63.06,40.00,13,1,22,0.00
2013-4-22,73.0,56.5,39.0,43.0,34.6,24.0,85,48,20,63.06,40.00,12,1,17,0.00
2013-4-23,73.0,53.8,38.0,37.9,30.3,18.5,85,49,13,63.06,40.00,10,1,15,0.00
2013-4-24,70.0,44.0,37.0,39.9,34.2,31.7,87,71,25,63.06,40.00,2,0,0,0.00
2013-4-29,79.0,65.4,55.0,39.7,34.1,28.2,52,32,20,63.06,40.00,10,1,17,0.00
2013-4-30,73.0,58.2,44.0,47.0,38.6,27.2,90,51,27,63.06,40.00,10,1,17,0.00
2013-5-1,70.0,57.6,41.0,44.6,19.8,-3.2,92,34,9,63.06,40.00,17,3,22,0.00
2013-5-2,66.0,56.1,41.0,24.2,3.2,-4.7,48,13,7,63.06,40.00,17,5,25,0.00
2013-5-3,81.0,55.6,31.0,26.3,19.3,10.5,62,30,10,63.06,40.00,11,1,15,0.00
2013-5-4,69.0,53.6,38.0,39.2,27.5,16.4,74,40,16,63.06,40.00,17,2,25,0.00
2013-5-5,52.0,45.3,41.0,42.6,35.0,20.6,93,70,34,63.06,40.00,13,2,22,0.00
2013-5-6,44.0,41.1,39.0,44.0,41.1,39.0,100,100,100,63.06,40.00,17,2,25,0.43
2013-5-7,54.0,43.5,35.0,49.0,41.4,35.0,100,93,72,63.06,40.00,11,1,19,0.14
2013-5-8,60.0,45.8,35.0,49.5,41.2,35.0,100,85,55,63.06,40.00,16,1,17,0.00
2013-5-9,64.0,52.3,35.0,49.1,42.8,35.0,100,73,37,63.06,40.00,12,2,16,0.00
2013-5-10,72.0,55.9,42.0,48.3,41.5,32.4,99,65,24,63.06,40.00,15,2,19,0.00
2013-5-11,80.0,60.4,41.0,47.3,39.5,28.0,99,56,16,63.06,40.00,15,2,19,0.00
2013-5-12,86.0,63.9,44.0,48.8,39.9,31.1,90,51,16,63.06,40.00,7,0,13,0.00
2013-5-13,86.0,66.5,45.0,49.3,39.8,33.7,89,46,17,63.06,40.00,12,1,16,0.00
2013-5-14,74.0,61.3,48.0,42.7,35.9,23.6,70,42,16,63.06,40.00,16,2,28,0.00
2013-5-15,76.0,57.2,40.0,47.0,39.5,30.5,88,55,25,63.06,40.00,7,1,16,0.00
2013-5-16,69.0,57.0,42.0,48.1,43.2,36.8,95,64,34,63.06,40.00,11,1,16,0.00
2013-5-17,62.0,52.3,45.0,48.5,45.4,42.2,94,79,56,63.06,40.00,16,1,20,0.00
2013-5-18,72.0,53.9,37.0,48.6,38.8,30.2,100,64,24,63.06,40.00,13,2,17,0.00
2013-5-19,75.0,57.6,38.0,40.8,31.7,24.2,80,42,16,63.06,40.00,12,2,15,0.00
2013-5-20,74.0,56.1,37.0,37.7,29.9,20.9,85,45,15,63.06,40.00,13,2,17,0.00
2013-5-21,76.0,58.1,39.0,43.2,36.3,29.3,71,48,25,63.06,40.00,15,1,22,0.00
2013-5-22,68.0,59.3,49.0,48.9,37.7,30.5,55,45,32,63.06,40.00,16,2,31,0.00
2013-5-23,65.0,51.6,41.0,46.5,40.4,30.1,98,68,41,63.06,40.00,11,1,20,0.00
2013-5-24,67.0,52.0,32.0,45.8,35.4,19.6,94,57,23,63.06,40.00,10,1,21,0.00
2013-5-25,66.0,54.0,41.0,44.1,31.2,4.7,94,47,19,63.06,40.00,13,1,23,0.00
2013-5-26,66.0,52.4,35.0,47.0,38.7,30.9,91,62,34,63.06,40.00,21,1,23,0.00
2013-5-27,57.0,46.5,37.0,39.1,36.6,32.6,97,72,41,63.06,40.00,13,2,16,0.00
2013-5-28,71.0,56.8,42.0,45.7,41.0,33.7,98,62,27,63.06,40.00,17,3,24,0.00
2013-6-1,90.0,77.6,55.0,46.1,37.8,28.1,64,27,13,63.06,40.00,10,2,19,0.00
2013-6-2,79.0,64.9,49.0,53.5,45.3,38.5,86,53,26,63.06,40.00,14,2,22,0.00
2013-6-3,77.0,65.3,49.0,48.8,38.0,26.8,57,37,24,63.06,40.00,12,1,23,0.00
2013-6-4,80.0,64.4,49.0,45.6,34.7,23.2,63,35,18,63.06,40.00,10,1,15,0.00
2013-6-5,87.0,65.1,43.0,44.6,32.9,24.7,58,34,13,63.06,40.00,10,1,16,0.00
2013-6-6,88.0,68.1,46.0,46.5,37.0,28.2,65,37,12,63.06,40.00,10,1,16,0.00
2013-6-7,94.0,69.3,48.0,47.0,34.9,24.6,64,36,11,63.06,40.00,11,1,15,0.00
2013-6-8,90.0,71.7,51.0,51.9,38.1,25.4,66,35,11,63.06,40.00,11,1,23,0.00
2013-6-9,80.0,69.4,56.0,49.2,37.6,24.2,64,33,18,63.06,40.00,12,2,20,0.00
2013-6-10,73.0,60.8,47.0,47.4,37.2,24.8,80,43,24,63.06,40.00,19,2,25,0.00
2013-6-11,84.0,63.4,43.0,51.1,38.9,27.5,81,47,17,63.06,40.00,10,1,15,0.00
2013-6-12,78.0,63.3,51.0,52.3,44.9,34.8,78,53,32,63.06,40.00,16,1,21,0.00
2013-6-13,80.0,63.9,43.0,46.6,37.5,17.9,71,41,23,63.06,40.00,11,1,16,0.00
2013-6-14,80.0,61.0,43.0,47.5,31.3,13.1,68,38,10,63.06,40.00,16,1,17,0.00
2013-6-15,77.0,63.6,44.0,45.4,31.3,15.6,76,33,12,63.06,40.00,13,1,19,0.00
2013-6-16,82.0,61.2,37.0,43.2,32.4,15.3,74,39,13,63.06,40.00,10,1,15,0.00
2013-6-17,82.0,62.5,39.0,49.2,37.7,25.4,85,47,16,63.06,40.00,11,1,16,0.00
2013-6-18,76.0,61.8,42.0,48.2,42.3,36.3,90,54,27,63.06,40.00,15,1,27,0.00
2013-6-19,80.0,60.9,42.0,47.6,37.4,14.6,91,48,9,63.06,40.00,12,2,16,0.00
2013-6-20,78.0,61.0,39.0,48.4,38.2,20.1,94,51,16,63.06,40.00,14,1,20,0.00
2013-6-21,75.0,56.4,43.0,46.7,41.8,34.5,91,62,30,63.06,40.00,7,0,15,0.00
2013-6-22,80.0,62.3,43.0,50.2,42.0,30.8,87,54,19,63.06,40.00,12,2,15,0.00
2013-6-23,73.0,60.3,45.0,49.9,45.0,39.9,90,60,35,63.06,40.00,14,1,20,0.00
2013-6-24,72.0,60.4,50.0,51.4,45.9,37.0,90,61,38,63.06,40.00,13,1,17,0.00
2013-6-25,84.0,65.6,49.0,55.6,50.0,46.3,94,61,34,63.06,40.00,9,1,16,0.00
2013-6-26,84.0,70.3,53.0,55.4,52.3,49.8,97,58,33,63.06,40.00,12,1,19,0.00
2013-6-27,87.0,73.0,58.0,54.0,50.4,45.7,83,49,26,63.06,40.00,13,1,22,0.00
2013-6-28,92.0,73.0,53.0,54.0,47.4,39.4,75,45,19,63.06,40.00,13,1,16,0.00
2013-6-29,95.0,74.8,54.0,55.2,44.6,33.5,69,38,18,63.06,40.00,10,1,16,0.00
2013-6-30,97.0,76.2,56.0,56.1,46.2,36.4,71,41,13,63.06,40.00,9,1,15,0.00
2013-7-1,90.0,74.0,59.0,58.3,47.9,38.8,65,42,25,63.06,40.00,17,1,22,0.00
2013-7-2,90.0,74.3,61.0,52.6,45.3,37.1,62,38,22,63.06,40.00,13,1,16,0.00
2013-7-3,93.0,73.8,58.0,54.5,49.1,42.7,73,45,20,63.06,40.00,12,1,16,0.00
2013-7-4,89.0,73.9,57.0,56.7,49.4,42.1,76,46,25,63.06,40.00,12,1,18,0.00
2013-7-5,86.0,71.7,56.0,54.0,50.7,44.2,78,51,29,63.06,40.00,12,1,20,0.00
2013-7-6,84.0,67.9,57.0,55.1,48.2,38.5,82,53,27,63.06,40.00,11,1,18,0.00
2013-7-7,89.0,71.9,52.0,50.0,42.5,30.5,67,39,13,63.06,40.00,9,1,17,0.00
2013-7-8,87.0,71.3,60.0,47.0,37.5,30.0,60,31,18,63.06,40.00,8,1,12,0.00
2013-7-9,91.0,71.7,52.0,48.8,40.6,31.0,65,37,13,63.06,40.00,12,1,16,0.00
2013-7-10,88.0,72.5,60.0,55.7,47.1,36.1,70,44,18,63.06,40.00,9,1,16,0.00
2013-7-11,79.0,65.8,62.0,56.9,51.7,45.6,74,61,43,63.06,40.00,7,0,0,0.00
2013-7-12,82.0,69.0,58.0,54.6,49.6,43.8,73,52,33,63.06,40.00,16,1,19,0.00
2013-7-13,89.0,69.4,50.0,49.9,41.0,31.1,65,39,18,63.06,40.00,11,1,15,0.00
2013-7-14,88.0,70.2,54.0,54.4,46.0,36.3,72,46,24,63.06,40.00,9,1,16,0.00
2013-7-15,84.0,68.3,54.0,50.9,45.3,37.7,71,46,24,63.06,40.00,13,1,22,0.00
2013-7-16,81.0,69.3,56.0,41.3,32.2,21.6,42,27,13,63.06,40.00,17,2,25,0.00
2013-7-17,84.0,66.3,43.0,42.7,29.9,12.6,62,31,10,63.06,40.00,9,1,22,0.00
2013-7-18,88.0,68.8,48.0,43.8,34.8,27.1,67,34,12,63.06,40.00,11,1,15,0.00
2013-7-19,89.0,72.1,54.0,49.2,39.8,29.0,55,33,15,63.06,40.00,11,1,22,0.00
2013-7-20,85.0,73.3,65.0,66.3,58.3,52.5,93,61,40,63.06,40.00,8,1,16,0.03
2013-7-21,76.0,66.5,59.0,64.4,59.7,55.4,99,80,57,63.06,40.00,10,0,14,0.04
2013-7-22,79.0,67.7,57.0,63.0,59.0,56.7,100,76,51,63.06,40.00,11,1,18,0.00
2013-7-23,82.0,67.5,54.0,60.8,55.3,48.7,100,69,39,63.06,40.00,12,1,19,0.00
2013-7-24,86.0,70.6,54.0,56.3,52.5,45.0,93,58,31,63.06,40.00,17,1,17,0.00
2013-7-25,88.0,71.5,54.0,53.4,48.8,40.4,81,49,24,63.06,40.00,10,1,19,0.00
2013-7-26,79.0,65.8,60.0,56.9,49.6,44.7,68,57,37,63.06,40.00,9,0,12,0.00
2013-7-27,84.0,70.4,57.0,59.8,53.7,47.1,93,60,31,63.06,40.00,10,1,18,0.00
2013-7-28,79.0,67.7,54.0,49.4,44.4,39.3,69,46,25,63.06,40.00,21,2,23,0.00
2013-7-29,81.0,67.0,50.0,47.5,38.0,23.4,73,38,16,63.06,40.00,12,1,18,0.00
2013-7-30,63.0,57.9,54.0,49.1,44.9,40.0,73,62,51,63.06,40.00,2,0,0,0.00
2013-7-31,81.0,69.6,56.0,49.5,42.5,30.5,77,41,17,63.06,40.00,10,1,20,0.00
2013-8-1,82.0,66.7,48.0,41.4,31.3,17.0,66,31,11,63.06,40.00,10,1,19,0.00
2013-8-2,80.0,63.9,46.0,48.8,40.6,29.9,74,45,25,63.06,40.00,15,1,20,0.00
2013-8-3,81.0,64.4,44.0,49.0,37.8,18.5,79,43,16,63.06,40.00,8,1,16,0.00
2013-8-4,83.0,67.4,49.0,46.6,36.8,25.5,70,37,13,63.06,40.00,12,1,18,0.00
2013-8-5,83.0,67.0,46.0,44.7,31.2,12.3,64,31,11,63.06,40.00,17,1,19,0.00
2013-8-6,81.0,66.6,51.0,38.7,28.1,11.6,48,27,11,63.06,40.00,19,2,22,0.00
2013-8-7,81.0,65.7,52.0,40.0,30.2,18.3,59,28,17,63.06,40.00,13,1,19,0.00
2013-8-8,76.0,59.5,56.0,41.5,22.0,9.8,56,26,14,63.06,40.00,6,0,15,0.00
2013-8-9,78.0,62.7,45.0,42.3,34.0,22.9,66,38,18,63.06,40.00,14,1,18,0.00
2013-8-10,79.0,61.2,40.0,45.0,34.9,20.0,89,44,16,63.06,40.00,13,1,20,0.00
2013-8-11,83.0,61.8,42.0,47.8,37.6,27.4,80,47,16,63.06,40.00,13,1,20,0.00
2013-8-12,84.0,63.8,44.0,46.4,36.2,31.8,81,43,16,63.06,40.00,10,1,17,0.00
2013-8-13,86.0,66.3,46.0,41.5,35.5,29.4,65,37,16,63.06,40.00,13,1,19,0.00
2013-8-14,92.0,68.6,49.0,45.3,33.2,19.9,59,33,9,63.06,40.00,11,1,16,0.00
2013-8-15,89.0,69.6,53.0,46.0,39.9,33.7,63,37,16,63.06,40.00,16,1,21,0.00
2013-8-16,88.0,73.4,58.0,52.6,49.3,45.9,79,46,25,63.06,40.00,13,1,16,0.03
2013-8-17,90.0,73.4,56.0,53.7,48.5,42.7,84,46,21,63.06,40.00,14,1,20,0.00
2013-8-18,91.0,75.6,59.0,52.7,49.9,46.4,67,43,25,63.06,40.00,13,1,19,0.00
2013-8-19,85.0,69.3,61.0,56.1,54.3,52.3,82,61,35,63.06,40.00,6,0,0,0.00
2013-8-20,85.0,69.8,58.0,56.1,48.4,38.6,88,53,22,63.06,40.00,16,1,19,0.00
2013-8-21,90.0,71.5,56.0,49.1,42.6,34.2,66,39,20,63.06,40.00,13,1,17,0.00
2013-8-22,89.0,71.2,54.0,48.0,43.0,38.6,70,40,22,63.06,40.00,17,1,18,0.00
2013-8-23,83.0,62.8,52.0,44.3,39.3,31.1,67,45,21,63.06,40.00,10,0,14,0.00
2013-8-27,85.0,72.8,61.0,58.8,56.1,53.9,84,59,39,63.06,40.00,10,1,17,0.00
2013-8-28,68.0,57.3,54.0,58.7,55.2,53.2,99,93,66,63.06,40.00,2,0,0,0.00
2013-8-29,82.0,69.5,56.0,60.6,56.2,52.4,91,65,40,63.06,40.00,8,1,14,0.00
2013-8-30,82.0,67.7,58.0,64.7,61.2,57.7,100,82,50,63.06,40.00,12,1,17,0.02
2013-8-31,80.0,68.4,62.0,65.7,62.2,59.9,99,82,56,63.06,40.00,12,1,17,0.00
2013-9-1,83.0,68.6,60.0,61.7,57.5,50.3,100,71,38,63.06,40.00,15,1,17,0.00
2013-9-2,86.0,68.5,53.0,56.6,53.2,48.3,96,63,32,63.06,40.00,9,1,18,0.00
2013-9-3,87.0,71.1,59.0,58.4,55.1,51.5,89,61,32,63.06,40.00,11,1,19,0.00
2013-9-4,89.0,71.0,58.0,58.7,55.6,53.5,92,63,31,63.06,40.00,12,1,25,0.00
2013-9-5,90.0,71.5,58.0,57.7,54.1,49.4,93,60,27,63.06,40.00,8,1,21,0.00
2013-9-6,86.0,70.2,57.0,57.0,51.7,47.4,88,57,27,63.06,40.00,9,1,19,0.00
2013-9-7,83.0,76.2,59.0,53.1,51.4,46.0,68,43,34,63.06,40.00,8,1,12,0.00
2013-9-8,85.0,75.0,53.0,51.6,44.6,37.6,92,39,25,63.06,40.00,10,3,17,0.00
2013-9-9,84.0,72.8,57.0,55.5,50.4,44.7,92,52,27,63.06,40.00,10,2,18,0.00
2013-9-10,78.0,70.3,59.0,52.8,45.8,43.9,80,43,31,63.06,40.00,10,2,19,0.00
2013-9-11,80.0,74.0,50.0,44.7,42.4,39.1,79,35,24,63.06,40.00,10,3,17,0.00
2013-9-12,80.0,62.5,49.0,45.8,41.2,38.1,71,51,24,63.06,40.00,12,1,15,0.00
2013-9-13,88.0,72.9,47.0,40.2,35.5,29.3,59,30,16,63.06,40.00,13,1,14,0.00
2013-9-14,51.0,50.2,50.0,42.3,41.6,41.3,73,72,70,63.06,40.00,0,0,0,0.00
2013-9-15,88.0,77.7,51.0,43.5,40.9,37.2,64,28,20,63.06,40.00,10,2,19,0.00
2013-9-16,86.0,75.0,53.0,42.1,39.6,38.0,66,31,20,63.06,40.00,10,2,18,0.00
2013-9-17,77.0,71.3,60.0,39.5,36.3,30.8,34,28,24,63.06,40.00,17,4,22,0.00
2013-9-18,77.0,70.1,54.0,33.5,29.8,24.1,37,23,17,63.06,40.00,13,2,14,0.00
2013-9-19,84.0,67.4,42.0,39.2,34.3,27.3,84,37,13,63.06,40.00,4,0,0,0.00
2013-9-20,77.0,70.3,48.0,50.1,43.5,33.9,62,39,25,63.06,40.00,14,3,20,0.00
2013-9-21,55.0,50.3,47.0,32.6,22.1,15.2,57,35,21,63.06,40.00,3,0,0,0.00
2013-9-22,66.0,52.4,38.0,42.7,30.3,24.5,98,48,23,63.06,40.00,12,2,15,0.00
2013-9-23,77.0,58.7,46.0,38.9,32.3,26.6,69,40,16,63.06,40.00,13,2,15,0.00
2013-9-24,76.0,54.9,42.0,38.5,33.7,30.2,74,48,22,63.06,40.00,12,1,17,0.00
2013-9-25,68.0,55.2,45.0,46.6,37.4,28.1,95,54,33,63.06,40.00,16,2,31,0.00
2013-9-26,59.0,45.4,34.0,42.9,33.1,16.0,98,70,19,63.06,40.00,15,1,22,0.00
2013-9-27,62.0,48.1,31.0,30.7,22.8,15.6,95,41,21,63.06,40.00,16,3,22,0.00
2013-9-28,72.0,50.6,31.0,33.3,24.2,15.6,72,41,16,63.06,40.00,9,1,13,0.00
2013-9-29,80.0,54.7,35.0,31.7,25.8,20.5,65,39,13,63.06,40.00,10,1,15,0.00
2013-9-30,81.0,55.8,36.0,39.1,28.6,19.9,74,40,15,63.06,40.00,9,1,13,0.00
2013-10-1,76.0,59.4,45.0,41.5,34.7,29.3,67,42,22,63.06,40.00,10,1,19,0.00
2013-10-2,73.0,58.0,48.0,46.2,37.1,20.7,91,49,29,63.06,40.00,17,1,20,0.00
2013-10-3,69.0,49.5,36.0,43.0,33.5,17.6,93,62,19,63.06,40.00,9,1,13,0.00
2013-10-4,47.0,44.9,44.0,23.0,15.1,8.6,40,30,23,63.06,40.00,6,2,0,0.00
2013-10-5,56.0,48.0,43.0,18.2,16.5,13.5,33,28,19,63.06,40.00,17,6,23,0.00
2013-10-6,71.0,49.7,29.0,27.0,17.6,8.7,64,33,11,63.06,40.00,10,1,14,0.00
2013-10-7,74.0,53.3,36.0,38.2,22.0,13.9,56,33,13,63.06,40.00,9,0,20,0.00
2013-10-8,67.0,52.6,43.0,46.4,28.0,12.0,98,45,22,63.06,40.00,17,1,21,0.00
2013-10-9,43.0,37.3,31.0,42.7,37.3,31.0,100,100,99,63.06,40.00,14,2,26,0.61
2013-10-10,55.0,37.9,28.0,51.5,36.7,28.0,100,96,71,63.06,40.00,9,0,13,0.30
2013-10-11,65.0,41.8,29.0,46.0,36.1,29.0,100,84,39,63.06,40.00,7,0,12,0.11
2013-10-12,67.0,46.8,31.0,44.0,36.3,31.0,100,72,34,63.06,40.00,11,1,16,0.03
2013-10-13,60.0,46.8,34.0,39.7,33.8,28.0,100,63,38,63.06,40.00,11,1,19,0.01
2013-10-14,60.0,43.2,29.0,34.4,29.5,22.9,100,66,28,63.06,40.00,13,2,19,0.00
2013-10-15,62.0,46.1,29.0,30.7,25.1,16.5,98,52,25,63.06,40.00,13,2,16,0.00
2013-10-16,63.0,46.8,31.0,31.1,22.3,16.8,80,41,18,63.06,40.00,12,1,13,0.00
2013-10-17,70.0,45.3,28.0,33.4,26.0,20.0,87,56,18,63.06,40.00,9,0,0,0.00
2013-10-18,67.0,47.5,31.0,30.7,25.6,16.7,94,52,16,63.06,40.00,12,1,15,0.00
2013-10-19,72.0,47.4,29.0,32.6,23.7,15.6,82,48,14,63.06,40.00,6,0,0,0.00
2013-10-20,78.0,48.7,31.0,34.4,24.9,12.7,75,47,12,63.06,40.00,8,0,12,0.00
2013-10-21,74.0,49.0,31.0,32.9,23.7,18.5,72,44,13,63.06,40.00,8,1,0,0.00
2013-10-22,74.0,50.2,33.0,37.0,26.1,17.5,69,46,15,63.06,40.00,7,0,0,0.00
2013-10-23,70.0,49.3,34.0,34.4,27.1,19.7,77,49,17,63.06,40.00,8,0,12,0.00
2013-10-24,70.0,47.5,33.0,30.3,26.0,18.8,84,51,16,63.06,40.00,10,1,15,0.00
2013-10-25,71.0,50.0,33.0,32.9,26.5,21.8,76,47,16,63.06,40.00,9,0,12,0.00
2013-10-26,73.0,52.7,36.0,35.9,28.7,23.2,69,44,18,63.06,40.00,9,0,12,0.00
2013-10-27,71.0,50.0,36.0,43.4,32.1,25.5,97,55,22,63.06,40.00,13,1,17,0.00
2013-10-28,43.0,38.2,34.0,43.0,38.1,34.0,100,100,98,63.06,40.00,20,4,34,0.09
2013-10-29,41.0,36.1,31.0,41.0,36.1,31.0,100,100,100,63.06,40.00,12,0,19,0.04
2013-10-30,41.0,32.9,28.0,37.4,32.2,28.0,100,97,85,63.06,40.00,10,2,13,0.01
2013-10-31,51.0,32.2,25.0,31.1,26.4,25.0,100,84,37,63.06,40.00,8,1,13,0.16
2013-11-1,64.0,46.2,32.0,33.8,28.9,24.8,92,58,24,63.06,40.00,9,0,14,0.03
2013-11-2,69.0,44.6,27.0,34.9,28.8,22.8,100,62,21,63.06,40.00,9,0,13,0.00
2013-11-3,66.0,43.8,32.0,42.6,32.9,24.8,100,69,32,63.06,40.00,4,0,0,0.00
2013-11-4,50.0,42.1,35.0,44.0,32.7,19.1,100,73,40,63.06,40.00,8,1,13,0.00
2013-11-5,49.0,40.0,34.0,21.0,12.0,5.2,50,33,20,63.06,40.00,13,4,23,0.00
2013-11-6,58.0,40.7,26.0,22.8,12.4,4.5,71,37,13,63.06,40.00,13,2,18,0.00
2013-11-7,66.0,42.8,28.0,31.4,24.5,20.1,86,54,22,63.06,40.00,7,0,0,0.00
2013-11-8,71.0,45.7,31.0,28.2,21.4,15.9,75,44,14,63.06,40.00,9,0,13,0.00
2013-11-9,70.0,44.7,31.0,25.5,19.8,13.7,68,41,16,63.06,40.00,9,0,12,0.00
2013-11-10,70.0,45.1,32.0,29.8,22.2,17.5,78,45,16,63.06,40.00,5,0,0,0.00
2013-11-11,66.0,43.7,29.0,31.7,25.7,20.3,84,55,23,63.06,40.00,6,0,0,0.00
2013-11-12,65.0,47.4,33.0,44.7,31.7,25.9,83,58,25,63.06,40.00,5,0,0,0.00
2013-11-13,65.0,45.7,32.0,32.9,25.4,20.0,87,52,19,63.06,40.00,10,1,13,0.00
2013-11-14,72.0,49.3,31.0,30.3,25.2,21.4,78,44,18,63.06,40.00,9,1,15,0.00
2013-11-15,51.0,44.2,39.0,42.5,36.0,24.8,99,75,36,63.06,40.00,8,0,15,0.00
2013-11-16,42.0,39.8,37.0,42.0,39.5,37.0,100,99,95,63.06,40.00,12,1,18,0.01
2013-11-17,57.0,38.4,28.0,46.3,35.5,28.0,100,90,61,63.06,40.00,7,0,0,0.00
2013-11-18,61.0,40.6,28.0,49.2,38.0,28.0,100,91,56,63.06,40.00,6,0,0,0.01
2013-11-19,57.0,44.6,36.0,40.7,35.5,25.1,100,74,29,63.06,40.00,7,0,13,0.00
2013-11-20,51.0,42.4,37.0,45.0,40.5,33.8,100,93,73,63.06,40.00,5,0,12,0.00
2013-11-21,44.0,41.3,36.0,44.0,41.3,36.0,100,100,100,63.06,40.00,9,1,16,0.24
2013-11-22,31.0,29.5,29.0,31.0,29.5,29.0,100,100,100,63.06,40.00,12,3,17,0.01
2013-11-23,33.0,31.0,29.0,33.0,31.0,29.0,100,100,100,63.06,40.00,7,1,0,0.06
2013-11-24,39.0,34.6,31.0,38.7,34.5,31.0,100,100,96,63.06,40.00,10,1,12,0.04
2013-11-25,50.0,39.2,29.0,36.6,32.5,28.0,100,79,45,63.06,40.00,13,3,16,0.03
2013-11-26,52.0,37.6,27.0,36.8,31.8,27.0,100,82,53,63.06,40.00,6,0,0,0.04
2013-11-27,56.0,39.1,28.0,38.9,32.2,27.8,100,80,42,63.06,40.00,6,0,12,0.01
2013-11-28,53.0,39.4,28.0,39.5,31.8,28.0,100,77,46,63.06,40.00,10,0,0,0.06
2013-11-29,43.0,36.2,31.0,41.9,35.9,31.0,100,99,94,63.06,40.00,1,0,0,0.02
2013-11-30,51.0,36.4,29.0,40.3,33.1,29.0,100,89,58,63.06,40.00,9,0,0,0.01
2013-12-1,51.0,36.2,28.0,31.9,29.3,26.5,98,79,41,63.06,40.00,6,0,0,0.01
2013-12-2,64.0,41.0,27.0,40.5,30.9,25.2,98,72,27,63.06,40.00,3,0,0,0.01
2013-12-3,53.0,42.1,38.0,39.7,37.3,33.5,100,85,51,63.06,40.00,19,2,19,0.01
2013-12-4,35.0,26.6,20.0,34.0,21.7,14.4,100,84,48,63.06,40.00,8,1,0,0.00
2013-12-5,37.0,29.0,21.0,31.6,26.3,21.0,100,90,71,63.06,40.00,8,0,0,0.03
2013-12-6,37.0,31.1,28.0,30.4,29.1,26.3,100,93,75,63.06,40.00,14,1,14,0.07
2013-12-7,32.0,30.0,27.0,32.0,30.0,27.0,100,100,100,63.06,40.00,13,2,32,0.04
2013-12-8,33.0,22.3,13.0,32.8,21.7,13.0,100,98,79,63.06,40.00,7,0,0,0.00
2013-12-9,27.0,21.9,12.0,9.6,3.2,-2.6,87,45,30,63.06,40.00,16,6,23,0.00
2013-12-10,35.0,23.1,9.0,17.8,10.6,-1.2,100,65,30,63.06,40.00,6,0,0,0.00
2013-12-11,44.0,30.4,14.0,21.6,16.0,7.7,100,60,29,63.06,40.00,6,0,0,0.07
2013-12-12,49.0,30.6,20.0,32.8,21.7,12.6,97,74,30,63.06,40.00,4,0,0,0.24
2013-12-13,48.0,39.7,25.0,21.8,13.9,7.9,87,37,23,63.06,40.00,12,3,17,0.09
2013-12-14,46.0,41.0,34.0,17.1,14.1,9.6,46,33,26,63.06,40.00,19,8,19,0.11
2013-12-15,51.0,38.8,28.0,25.6,20.4,14.5,88,51,28,63.06,40.00,12,2,0,0.21
2013-12-16,56.0,41.9,27.0,31.7,26.2,19.7,92,60,27,63.06,40.00,4,0,0,0.29
2013-12-29,41.0,34.2,25.0,15.6,7.2,2.4,67,35,21,63.06,40.00,6,0,0,0.00
2013-12-30,58.0,38.9,22.0,25.9,14.4,1.6,69,44,12,63.06,40.00,3,0,0,0.00
2013-12-31,61.0,41.8,29.0,25.4,19.4,12.6,69,47,17,63.06,40.00,58,1,58,77.04
2014-1-1,55.0,40.9,28.0,24.4,19.3,11.8,77,48,22,63.06,40.00,8,1,14,0.00
2014-1-2,56.0,41.3,25.0,30.9,25.9,20.9,94,59,31,63.06,40.00,3,0,0,0.00